Вышний Волочёк

Россия / Тверская область     57°35′03″N   34°33′31″E
темп.,
°C
ветер,
м/с
пор.,
м/с
влажн.,
%
обл.,
%
осадки,
мм/ч
давл.,
гПа
погр.,
м
9 мая, вс
вс900:00+3сз41081100 0.0 1008812
03:00+4ссз498188 0.0 1009823
06:00+2ссз61077100 0.0 1011996
09:00+6ссз5105742 0.0 10131408
12:00+10сз6840100 0.0 10142319
15:00+12сз6834100 0.0 10162714
18:00+11сз474160 0.0 10182366
21:00+5зсз37642 0.0 1021113
10 мая, пн
пн1000:00+2зсз22710 0.0 102424
03:00+1зюз11725 0.0 102610
06:00+3ю226619 0.0 102752
09:00+10ю35455 0.0 1027600
12:00+14ююз4537100 0.0 10271667
15:00+11ююз265689 0.0 1027298
18:00+14ю345195 0.0 1027872
21:00+8ю23749 0.0 102847
11 мая, вт
вт1100:00+7ю2475100 0.0 102971
03:00+6ююз2378100 0.0 103045
06:00+7ю237613 0.0 103070
09:00+13ююв245698 0.0 1030409
12:00+17юв344419 0.0 1030942
15:00+19вюв34445 0.0 10291289
18:00+18вюв34515 0.0 10281044
21:00+11вюв24763 0.0 102870
12 мая, ср
ср1200:00+8юв25820 0.0 102972
03:00+7вюв22853 0.0 102816
06:00+8в25830 0.0 1028128
09:00+15в366162 0.0 1027496
12:00+20в585334 0.0 10251314
15:00+19вюв596596 0.5 10241281
18:00+19вюв496937 0.3 10231234
21:00+15вюв4117972 0.3 1023762
13 мая, чт
чт1300:00+14в41186100 0.0 1022573
03:00+14в4118788 0.1 1021726
06:00+13вюв4108997 0.0 1020686
09:00+14вюв498994 0.2 1019715
12:00+15юв51085100 0.6 10181213
15:00+15юз3678100 1.9 1018605
18:00+17юв377770 0.8 1017943
21:00+13юв2595100 0.9 1017102